Location: Unspecified
(42.9300°N, 71.1866°W)
Time: 04:11:32
(UTC-04:00)

Okean 3 - Visible Passes

Search period start: 24 March 2017 00:00
Search period end: 03 April 2017 00:00
Orbit: 577 x 603 km, 82.5° (Epoch: 22 March)

Date Brightness Start Highest point End Pass type
(mag) Time Alt. Az. Time Alt. Az. Time Alt. Az.
24 Mar 5.6 03:44:07 22° N 03:44:07 22° N 03:45:40 10° N visible
25 Mar 5.6 03:52:30 20° N 03:52:30 20° N 03:53:55 10° N visible
26 Mar 5.7 04:00:52 17° NNW 04:00:52 17° NNW 04:02:03 10° N visible
27 Mar 6.7 02:32:39 11° NE 02:32:39 11° NE 02:32:48 10° NNE visible
27 Mar 5.8 04:09:12 14° NNW 04:09:12 14° NNW 04:10:04 10° NNW visible
28 Mar 6.5 02:40:58 13° NNE 02:40:58 13° NNE 02:41:26 10° NNE visible
28 Mar 6.0 04:17:32 11° NNW 04:17:32 11° NNW 04:17:53 10° NNW visible
29 Mar 6.4 02:49:17 14° NNE 02:49:17 14° NNE 02:49:54 10° NNE visible
30 Mar 6.3 02:57:35 14° N 02:57:35 14° N 02:58:16 10° N visible
31 Mar 6.2 03:05:51 14° N 03:05:51 14° N 03:06:32 10° N visible
01 Apr 6.2 03:14:07 13° N 03:14:07 13° N 03:14:40 10° N visible
02 Apr 6.2 03:22:23 11° NNW 03:22:23 11° NNW 03:22:41 10° NNW visible
